Weather History for Szczecin, Poland

Change the Weather History Date:

Friday, November 8, 2013

  Actual Average Record
Temperature  
Mean Temperature 46 °F -  
Max Temperature 53 °F 41 °F 55 °F (2000)
Min Temperature 39 °F 31 °F 23 °F (2004)
Degree Days  
Heating Degree Days 19    
Moisture  
Dew Point 44 °F    
Average Humidity 96    
Maximum Humidity 100    
Minimum Humidity 76    
Precipitation  
Precipitation 0.00 in - - ()
Sea Level Pressure  
Sea Level Pressure 29.82 in    
Wind  
Wind Speed 3 mph ()    
Max Wind Speed 9 mph    
Max Gust Speed -    
Visibility 3.3 miles    
Events Fog , Rain    
Averages and records for this station are not official NWS values.
T = Trace of Precipitation, MM = Missing Value Source: Averaged Metar Reports

Daily Weather History Graph

Daily Weather History Graph

Search for Another Location

Airport:

Trip Planner

Search our weather history database for the weather conditions in past years. The results will help you decide how hot, cold, wet, or windy it might be!

Date:

Astronomy

Nov. 08, 2013 Rise Set
Actual Time 7:13 AM CET 4:14 PM CET
Civil Twilight 6:35 AM CET 4:52 PM CET
Nautical Twilight 5:53 AM CET 5:34 PM CET
Astronomical Twilight 5:12 AM CET 6:15 PM CET
Moon 11:58 AM CET (11/8) 9:14 PM CET (11/8)
Length of Visible Light 10h 17m
Length of Day
9h 01m
Waxing Crescent, 30% of the Moon is Illuminated
Nov 8
Waxing Crescent
Nov 10
First Quarter
Nov 17
Full
Nov 25
Last Quarter
Dec 3
New

Hourly Weather History & Observations

Time (CET) Temp. Windchill Dew Point Humidity Pressure Visibility Wind Dir Wind Speed Gust Speed Precip Events Conditions
12:00 AM 44.6 °F 43.1 °F 44.6 °F 100% 29.77 in - South 3.5 mph - N/A   Clear
12:30 AM 42.8 °F - 42.8 °F 100% 29.77 in - Variable 2.3 mph - N/A   Clear
1:00 AM 47 °F - 47 °F 99% 29.78 in 9 mi SW 6.7 mph - -   Partly Cloudy
1:00 AM 42.8 °F - 42.8 °F 100% 29.77 in - SE 2.3 mph - N/A   Clear
1:30 AM 42.8 °F 41.1 °F 41.0 °F 93% 29.77 in - South 3.5 mph - N/A   Clear
2:00 AM 42.8 °F - 42.8 °F 100% 29.77 in - South 2.3 mph - N/A   Clear
2:30 AM 42.8 °F 41.1 °F 42.8 °F 100% 29.77 in 6.2 mi South 3.5 mph - N/A   Partly Cloudy
3:00 AM 44.6 °F 43.1 °F 42.8 °F 93% 29.77 in 3.7 mi South 3.5 mph - N/A Rain Light Rain
3:30 AM 44.6 °F - 42.8 °F 93% 29.77 in 3.1 mi South 2.3 mph - N/A   Mist
4:00 AM 47 °F - 47 °F 100% 29.78 in 3 mi SSW 6.7 mph - - Rain Light Rain
4:00 AM 44.6 °F - 42.8 °F 93% 29.77 in 1.9 mi SE 2.3 mph - N/A   Scattered Clouds
4:30 AM 44.6 °F - 44.6 °F 100% 29.77 in 1.9 mi Calm Calm - N/A Rain Light Rain
5:00 AM 44.6 °F - 44.6 °F 100% 29.77 in 1.2 mi SSE 2.3 mph - N/A Rain Light Rain
5:30 AM 42.8 °F 41.1 °F 42.8 °F 100% 29.77 in 1.2 mi South 3.5 mph - N/A Rain Light Rain
6:00 AM 44.6 °F - 44.6 °F 100% 29.77 in 1.2 mi Calm Calm - N/A Rain Light Rain
6:30 AM 44.6 °F 43.1 °F 44.6 °F 100% 29.77 in 0.9 mi SSE 3.5 mph - N/A Rain Light Rain
7:00 AM 47 °F - 47 °F 99% 29.80 in 2 mi West 2.2 mph - - Rain Light Rain
7:00 AM 44.6 °F 42.2 °F 44.6 °F 100% 29.77 in 0.7 mi South 4.6 mph - N/A Rain Light Rain
7:30 AM 44.6 °F 42.2 °F 44.6 °F 100% 29.80 in 0.4 mi South 4.6 mph - N/A Fog Fog
8:00 AM 44.6 °F - 44.6 °F 100% 29.80 in 0.4 mi Variable 1.2 mph - N/A Fog Fog
8:30 AM 44.6 °F - 44.6 °F 100% 29.80 in 0.2 mi Calm Calm - N/A Fog Light Drizzle
9:00 AM 46.4 °F - 46.4 °F 100% 29.80 in 0.2 mi SE 2.3 mph - N/A Fog Fog
9:30 AM 46.4 °F - 46.4 °F 100% 29.83 in 1.6 mi Variable 2.3 mph - N/A   Mostly Cloudy
10:00 AM 49 °F - 49 °F 98% 29.83 in 3 mi SW 6.7 mph - -   Mist
10:00 AM 46.4 °F - 46.4 °F 100% 29.83 in 2.8 mi Calm Calm - N/A   Mostly Cloudy
10:30 AM 46.4 °F 44.3 °F 46.4 °F 100% 29.83 in 3.7 mi South 4.6 mph - N/A   Mostly Cloudy
11:00 AM 48.2 °F - 48.2 °F 100% 29.83 in 3.1 mi Variable 2.3 mph - N/A   Mostly Cloudy
11:30 AM 48.2 °F - 48.2 °F 100% 29.83 in 3.1 mi WSW 3.5 mph - N/A   Mostly Cloudy
12:00 PM 50.0 °F - 48.2 °F 94% 29.83 in 5.0 mi SW 4.6 mph - N/A   Scattered Clouds
12:30 PM 51.8 °F - 46.4 °F 82% 29.86 in 6.2 mi SW 5.8 mph - N/A   Scattered Clouds
1:00 PM 52 °F - 47 °F 76% 29.87 in 9 mi WSW 6.7 mph - -   Partly Cloudy
1:00 PM 50.0 °F - 48.2 °F 94% 29.86 in 6.2 mi WSW 5.8 mph - N/A   Scattered Clouds
1:30 PM 50.0 °F - 46.4 °F 87% 29.86 in 6.2 mi WSW 2.3 mph - N/A   Scattered Clouds
2:00 PM 51.8 °F - 44.6 °F 76% 29.86 in 6.2 mi Variable 2.3 mph - N/A   Scattered Clouds
2:30 PM 51.8 °F - 44.6 °F 76% 29.86 in 6.2 mi Variable 2.3 mph - N/A   Scattered Clouds
3:00 PM 50.0 °F - 44.6 °F 82% 29.86 in 6.2 mi SSE 2.3 mph - N/A   Scattered Clouds
3:30 PM 48.2 °F - 44.6 °F 87% 29.86 in 6.2 mi SSE 2.3 mph - N/A   Partly Cloudy
4:00 PM 48 °F - 44 °F 81% 29.87 in 10 mi SSW 4.5 mph - -   Clear
4:00 PM 46.4 °F - 44.6 °F 93% 29.86 in - SSE 2.3 mph - N/A   Clear
4:30 PM 44.6 °F - 42.8 °F 93% 29.86 in 6.2 mi SSE 2.3 mph - N/A Fog Shallow Fog
5:00 PM 41.0 °F 39.0 °F 41.0 °F 100% 29.86 in 3.7 mi SE 3.5 mph - N/A Fog Fog
5:30 PM 42.8 °F - 42.8 °F 100% 29.86 in 3.7 mi SE 2.3 mph - N/A Fog Fog
6:00 PM 42.8 °F 40.1 °F 42.8 °F 100% 29.86 in 3.1 mi SE 4.6 mph - N/A Fog Fog
6:30 PM 42.8 °F 41.1 °F 41.0 °F 93% 29.86 in 3.1 mi SE 3.5 mph - N/A Fog Fog
7:00 PM 42 °F - 42 °F 99% 29.87 in 5 mi SW 4.5 mph - -   Mist
7:00 PM 39.2 °F 35.9 °F 39.2 °F 100% 29.86 in 1.2 mi SE 4.6 mph - N/A Fog Fog
7:30 PM 41.0 °F 38.0 °F 41.0 °F 100% 29.86 in 1.9 mi SE 4.6 mph - N/A Fog Fog
8:00 PM 41.0 °F 38.0 °F 41.0 °F 100% 29.86 in 1.9 mi SE 4.6 mph - N/A   Mist
8:30 PM 41.0 °F 39.0 °F 41.0 °F 100% 29.86 in 1.2 mi SE 3.5 mph - N/A Fog Fog
9:00 PM 41.0 °F 38.0 °F 41.0 °F 100% 29.83 in 1.2 mi ESE 4.6 mph - N/A Fog Fog
9:30 PM 42.8 °F 40.1 °F 42.8 °F 100% 29.83 in 1.9 mi ESE 4.6 mph - N/A Fog Fog
10:00 PM 43 °F - 43 °F 100% 29.81 in 5 mi ESE 8.9 mph - -   Mist
10:00 PM 42.8 °F 38.0 °F 42.8 °F 100% 29.80 in 1.9 mi ESE 8.1 mph - N/A   Scattered Clouds
10:30 PM 42.8 °F 38.0 °F 42.8 °F 100% 29.80 in 1.2 mi SE 8.1 mph - N/A   Mostly Cloudy
11:00 PM 42.8 °F 38.0 °F 42.8 °F 100% 29.80 in 1.2 mi SE 8.1 mph - N/A   Mostly Cloudy
11:30 PM 42.8 °F 37.5 °F 42.8 °F 100% 29.80 in 1.9 mi SE 9.2 mph - N/A   Mostly Cloudy